TimeEST,TemperatureF,Dew PointF,Humidity,Sea Level PressureIn,VisibilityMPH,Wind Direction,Wind SpeedMPH,Gust SpeedMPH,PrecipitationIn,Events,Conditions,WindDirDegrees,DateUTC
12:54 AM,41.0,28.9,62,30.28,10.0,NNE,9.2,-,N/A,,Partly Cloudy,30,2012-12-06 05:54:00
1:54 AM,39.9,26.1,58,30.31,10.0,NNE,11.5,-,N/A,,Partly Cloudy,20,2012-12-06 06:54:00
2:54 AM,37.0,25.0,62,30.32,10.0,NNE,6.9,-,N/A,,Clear,20,2012-12-06 07:54:00
3:54 AM,35.1,25.0,67,30.33,10.0,NNE,8.1,-,N/A,,Clear,20,2012-12-06 08:54:00
4:54 AM,33.1,24.1,70,30.33,10.0,North,5.8,-,N/A,,Clear,10,2012-12-06 09:54:00
5:54 AM,34.0,24.1,67,30.35,10.0,NNW,4.6,-,N/A,,Clear,340,2012-12-06 10:54:00
6:54 AM,30.9,23.0,72,30.37,10.0,North,4.6,-,N/A,,Partly Cloudy,360,2012-12-06 11:54:00
7:54 AM,33.1,25.0,72,30.38,10.0,NNW,6.9,-,N/A,,Scattered Clouds,340,2012-12-06 12:54:00
8:54 AM,37.9,25.0,60,30.40,10.0,North,8.1,-,N/A,,Scattered Clouds,10,2012-12-06 13:54:00
9:54 AM,41.0,25.0,53,30.40,10.0,NNE,8.1,-,N/A,,Scattered Clouds,20,2012-12-06 14:54:00
10:54 AM,43.0,26.1,51,30.39,10.0,North,8.1,-,N/A,,Scattered Clouds,10,2012-12-06 15:54:00
11:54 AM,45.0,27.0,49,30.36,10.0,ENE,5.8,-,N/A,,Scattered Clouds,70,2012-12-06 16:54:00
12:54 PM,45.0,26.1,48,30.33,10.0,Calm,Calm,-,N/A,,Scattered Clouds,0,2012-12-06 17:54:00
1:54 PM,46.9,26.1,44,30.31,10.0,Calm,Calm,-,N/A,,Mostly Cloudy,0,2012-12-06 18:54:00
2:54 PM,46.9,26.1,44,30.30,10.0,Calm,Calm,-,N/A,,Mostly Cloudy,0,2012-12-06 19:54:00
3:54 PM,46.0,27.0,47,30.30,10.0,Calm,Calm,-,N/A,,Mostly Cloudy,0,2012-12-06 20:54:00
4:54 PM,41.0,28.9,62,30.30,10.0,South,4.6,-,N/A,,Mostly Cloudy,170,2012-12-06 21:54:00
5:54 PM,39.9,28.9,65,30.30,10.0,SE,3.5,-,N/A,,Overcast,140,2012-12-06 22:54:00
6:54 PM,37.0,28.9,73,30.30,10.0,SE,5.8,-,N/A,,Mostly Cloudy,130,2012-12-06 23:54:00
7:54 PM,37.0,28.9,73,30.30,10.0,Calm,Calm,-,N/A,,Mostly Cloudy,0,2012-12-07 00:54:00
8:54 PM,35.1,28.0,76,30.30,10.0,ESE,4.6,-,N/A,,Mostly Cloudy,120,2012-12-07 01:54:00
9:54 PM,36.0,28.9,76,30.30,10.0,SE,3.5,-,N/A,,Mostly Cloudy,130,2012-12-07 02:54:00
10:54 PM,33.1,28.9,85,30.29,10.0,ESE,3.5,-,N/A,,Mostly Cloudy,120,2012-12-07 03:54:00
11:54 PM,35.1,30.9,85,30.28,10.0,Calm,Calm,-,N/A,,Overcast,0,2012-12-07 04:54:00